GFSFLT1_850_spd_111.txt.gz
Wind_Speed
24 22 20 21 23 27 29 32 34 30 26 23 21 23 21 23 26 26 29 30 37 42 46 51 50 39 41 38 39 38 33 29
27 21 21 21 18 21 25 31 34 32 29 25 25 23 21 24 24 26 27 30 37 40 50 50 48 42 46 41 43 42 36 31
25 20 22 21 18 20 24 30 32 32 27 24 24 20 21 21 22 23 26 29 32 36 39 47 47 48 49 43 46 45 38 34
23 24 23 21 21 22 24 30 32 31 26 24 23 21 22 23 24 26 24 25 29 34 40 45 53 46 48 45 48 49 44 37
20 18 22 21 23 22 26 30 32 29 26 23 23 23 25 26 26 26 25 23 28 33 39 43 49 52 46 46 46 50 45 43
15 19 19 20 24 24 25 29 31 29 25 24 21 23 22 20 23 23 29 26 27 35 38 49 48 52 49 49 48 50 48 45
11 12 17 18 22 25 24 31 32 28 25 23 21 23 23 22 22 24 26 26 26 38 35 40 42 47 50 50 49 49 48 46
15 11 8 11 18 20 24 32 31 27 25 22 20 19 16 14 17 21 24 26 32 39 31 38 40 42 41 42 47 48 47 45
20 12 7 9 13 16 21 31 30 27 24 21 17 13 13 13 15 15 18 23 29 36 33 34 32 35 38 38 42 45 46 43
23 14 6 5 9 15 20 28 30 25 25 20 15 14 13 14 11 13 13 21 25 32 37 34 32 33 32 33 39 44 41 37
23 22 16 10 6 13 21 26 28 24 25 18 14 13 13 13 12 11 17 20 26 29 31 30 32 31 30 29 35 39 40 35
24 21 18 12 5 10 21 23 25 21 20 16 13 15 15 12 12 13 12 21 23 31 30 31 29 30 33 35 32 33 38 39
24 23 17 9 5 10 18 20 19 18 17 14 14 15 13 14 13 12 12 13 25 33 34 37 42 39 35 43 48 49 48 45
27 27 23 15 2 6 13 14 15 17 16 14 14 15 14 12 10 12 14 12 15 25 27 34 36 39 43 40 43 50 52 50
26 27 24 22 12 1 4 10 13 16 16 14 14 16 16 15 13 12 12 14 14 16 18 28 36 37 42 43 43 46 50 49
17 19 23 25 20 11 2 9 10 11 13 11 11 13 15 15 16 15 15 15 16 15 15 20 23 29 35 41 40 39 39 43
13 14 16 24 19 18 12 2 6 13 11 11 12 12 15 18 17 17 16 16 16 17 17 19 18 18 29 38 39 39 43 38
10 9 10 10 16 19 14 5 1 8 11 8 11 13 15 17 19 21 20 19 19 18 18 19 19 18 21 28 30 30 28 29
10 10 9 10 8 10 11 7 2 2 7 8 8 12 16 16 18 21 23 22 22 22 20 18 19 19 19 20 20 20 21 21

GFSFLT1_850_spd_114.txt.gz
Wind_Speed
23 21 20 18 21 19 24 27 30 34 37 33 29 27 26 24 26 27 28 30 34 35 39 36 38 36 34 36 38 29 26 27
25 22 20 22 21 17 22 25 28 35 39 37 32 30 27 24 24 27 28 28 33 33 38 35 41 41 39 41 36 30 28 27
24 20 18 23 20 17 20 24 28 35 38 36 32 29 25 24 25 25 28 29 30 33 34 39 43 44 41 42 40 34 31 31
19 18 19 18 21 19 19 24 28 32 32 34 27 19 23 24 24 26 27 28 32 32 38 39 45 49 49 46 41 37 38 35
16 18 19 18 18 19 19 22 27 28 29 29 28 23 19 21 23 25 26 25 28 32 31 37 49 52 50 51 46 42 37 36
10 12 16 14 16 19 19 23 26 29 28 24 23 18 16 15 17 21 24 27 28 32 31 38 41 53 53 52 50 46 42 38
5 6 6 11 13 17 18 22 28 33 32 25 22 21 19 20 19 22 26 27 30 32 29 32 42 46 49 50 51 51 47 41
7 5 2 8 13 15 18 25 30 32 33 28 23 20 20 21 20 20 25 27 32 30 32 33 43 50 41 55 53 53 46 43
10 6 2 4 9 12 18 26 28 31 31 26 22 19 16 16 16 18 19 21 26 28 31 36 40 44 48 55 49 52 50 45
11 10 6 2 4 10 16 23 23 29 25 21 20 18 16 14 15 15 15 16 18 22 29 32 38 42 46 46 54 54 48 45
10 9 8 5 2 6 11 18 21 25 21 20 17 18 15 14 16 14 13 15 13 14 20 29 28 30 34 41 43 42 44 44
12 12 10 11 6 2 8 15 18 20 23 21 18 16 15 15 14 12 10 12 12 13 18 26 30 29 27 35 32 34 40 40
15 15 11 9 7 2 4 15 17 18 20 21 18 16 15 16 14 11 10 11 11 14 19 26 30 32 30 27 30 32 32 34
15 17 21 17 6 1 4 11 15 15 16 19 16 18 18 15 14 12 12 11 13 15 19 30 32 32 28 26 28 31 35 35
14 16 18 22 16 6 7 8 9 12 14 17 17 17 17 15 12 12 12 13 11 14 17 31 34 34 34 32 33 36 39 37
13 15 15 16 21 17 8 9 12 11 13 14 16 17 17 18 16 15 13 13 14 14 17 18 23 31 36 35 36 34 39 44
11 13 13 17 21 23 19 9 4 13 16 15 15 18 19 19 19 18 17 16 16 17 17 18 20 21 21 33 36 41 37 38
11 12 11 11 13 16 20 22 14 2 16 18 16 16 17 20 21 20 21 20 19 18 18 19 20 21 20 24 25 30 37 43
11 11 11 12 9 6 9 18 18 10 6 12 16 17 16 17 20 22 22 22 22 22 22 20 20 20 20 22 27 31 31 33

GFSFLT1_850_spd_117.txt.gz
Wind_Speed
22 23 24 24 23 22 22 25 29 31 30 28 25 26 29 28 26 24 22 24 25 27 31 31 32 32 31 32 28 29 27 25
23 24 24 25 23 22 21 24 28 32 33 35 39 35 30 29 26 24 24 24 24 27 28 32 32 34 33 32 30 33 30 27
26 25 25 25 24 23 21 23 27 32 38 41 31 26 25 20 20 20 23 26 29 29 29 32 32 35 34 34 35 40 34 29
28 26 25 22 25 23 22 23 26 33 40 33 23 22 25 27 26 23 21 22 28 31 32 33 32 32 44 41 39 43 40 36
24 20 21 23 26 22 22 23 25 35 33 29 29 25 27 24 19 19 22 23 26 30 30 33 33 35 41 39 42 43 40 39
15 18 19 21 23 21 20 22 25 31 29 28 30 25 18 15 17 18 20 18 22 25 30 34 33 44 48 46 45 44 45 41
7 8 9 14 13 16 19 21 25 28 31 30 27 26 21 19 18 17 19 20 22 25 27 30 33 36 48 47 46 49 46 42
1 1 1 5 11 14 16 20 24 29 33 30 26 23 22 19 17 17 18 20 25 29 31 31 34 31 43 54 47 51 50 46
6 5 3 2 7 10 14 17 24 32 30 29 24 22 19 17 18 15 18 19 23 29 30 29 33 34 33 44 51 49 53 49
8 7 6 2 3 8 12 17 23 28 31 26 22 20 18 15 15 14 15 20 21 21 24 28 29 32 35 46 53 49 54 53
7 7 7 5 2 6 10 17 20 23 23 25 19 19 18 15 15 16 17 17 18 17 17 19 23 31 40 46 49 50 49 53
7 8 7 4 3 3 7 13 20 20 22 23 19 17 15 15 14 16 15 14 13 12 12 14 17 25 39 44 46 49 55 54
11 10 9 6 4 2 2 9 16 18 23 20 18 15 14 14 15 13 14 12 8 7 8 11 15 18 26 35 40 45 49 48
12 12 15 13 7 3 2 6 12 16 18 17 17 15 14 14 14 15 13 13 10 8 7 11 15 19 20 25 33 37 39 45
11 11 12 14 17 10 2 6 11 12 13 15 14 17 16 17 12 13 13 13 12 8 8 12 16 23 22 23 21 20 24 30
10 12 12 12 15 18 13 4 5 11 11 12 14 14 14 13 12 13 13 13 13 11 11 13 20 27 31 30 29 30 34 36
10 10 11 11 13 16 15 17 15 5 12 13 12 15 16 16 16 14 13 13 14 14 14 15 20 30 31 33 29 30 33 34
9 9 9 10 10 10 12 16 17 16 6 14 13 15 19 18 15 16 16 15 15 15 15 17 18 21 22 30 32 31 30 29
10 9 9 10 9 8 8 8 13 17 18 7 8 14 17 16 19 17 18 17 17 19 18 17 17 19 19 19 20 24 33 33

GFSFLT1_850_spd_120.txt.gz
Wind_Speed
32 33 35 33 32 29 28 32 35 32 34 33 27 25 28 28 28 24 23 22 23 24 27 27 29 30 29 26 28 28 30 28
25 25 27 26 23 31 27 21 30 33 35 37 35 32 33 33 29 25 22 21 23 25 27 28 29 32 31 28 28 31 33 29
19 20 20 24 27 28 28 29 23 32 36 39 37 33 34 30 32 28 25 23 22 25 27 29 30 31 33 31 30 34 29 35
27 23 27 27 28 26 27 26 24 32 35 34 34 34 29 24 30 28 27 26 25 25 28 29 30 34 34 33 32 36 36 39
26 31 31 32 33 33 32 24 25 30 36 39 38 36 35 33 32 29 26 24 25 29 29 31 31 31 33 33 36 34 39 45
28 29 28 14 16 23 26 26 26 30 37 41 35 34 33 26 29 29 29 25 21 23 29 32 31 33 31 34 38 41 41 46
4 5 9 13 14 25 29 28 26 31 36 34 30 33 30 25 23 23 22 22 23 25 24 30 34 34 32 35 40 37 44 45
7 8 7 8 11 14 17 21 21 27 32 27 29 31 27 23 23 25 24 21 21 22 24 26 31 32 33 36 36 42 42 48
10 10 8 4 8 8 15 17 24 16 27 22 28 26 28 23 21 21 24 21 23 26 24 24 26 27 29 31 41 46 48 49
17 8 7 5 5 4 8 9 21 25 24 26 31 26 26 25 22 25 18 20 21 24 25 28 29 27 29 30 40 45 49 50
12 8 8 8 5 2 6 8 16 20 23 30 28 25 26 21 22 20 20 20 25 25 21 20 23 27 29 32 34 34 54 53
9 8 9 7 5 3 3 6 14 14 19 28 25 25 23 20 19 20 21 24 23 20 19 19 20 25 28 31 35 40 47 44
13 12 11 9 6 3 3 1 7 13 15 22 22 21 22 21 19 18 20 20 17 17 16 17 19 22 24 25 33 42 44 46
16 14 15 13 10 7 3 1 5 10 14 13 23 20 18 19 17 18 20 18 16 14 12 13 14 15 16 19 27 35 38 42
14 14 15 14 13 10 7 1 4 7 9 10 18 19 19 15 15 19 21 18 16 13 11 11 12 14 14 15 23 26 32 35
15 14 14 14 15 14 12 9 4 3 7 9 11 11 14 14 16 15 14 14 14 12 10 11 11 18 17 16 16 19 25 30
13 15 15 12 10 12 12 14 12 6 3 9 12 13 11 13 16 17 15 12 10 11 11 11 13 17 20 21 22 20 23 24
13 14 14 13 12 11 9 11 10 11 10 4 6 13 13 14 15 14 14 12 10 12 12 12 12 18 20 22 27 21 25 26
13 13 13 13 11 11 13 9 7 8 10 13 11 7 14 18 18 13 15 13 12 11 11 11 13 14 20 23 26 26 26 26

GFSFLT1_850_spd_123.txt.gz
Wind_Speed
52 48 44 42 44 44 43 42 41 39 33 30 29 29 30 32 32 32 29 28 24 24 28 30 33 31 28 28 30 29 25 26
44 46 49 44 42 45 43 43 44 42 38 34 31 31 32 35 35 28 25 28 27 25 26 30 33 32 30 31 32 30 30 29
26 19 36 38 39 37 40 36 42 42 39 35 31 29 31 31 33 27 27 29 29 28 27 29 32 32 31 33 33 32 31 34
28 29 19 27 28 28 27 29 36 39 39 36 34 29 29 31 31 30 30 29 30 28 28 29 32 33 32 35 35 35 37 38
32 30 29 22 18 22 24 30 33 34 34 38 35 36 36 38 35 36 31 30 28 28 27 28 31 36 36 36 37 36 38 43
35 36 30 32 29 25 27 30 32 30 32 33 35 35 36 37 33 29 30 32 31 29 29 31 32 37 37 36 38 38 38 43
40 24 31 31 26 24 29 30 27 29 30 33 35 34 33 32 31 29 30 28 26 29 29 30 31 35 37 39 38 37 38 45
22 19 18 15 15 22 26 24 24 24 28 30 34 32 34 34 32 29 30 31 29 29 28 29 34 34 34 37 37 37 38 41
31 29 27 23 19 19 22 23 14 16 20 27 30 28 29 31 28 28 24 25 23 24 25 26 28 34 35 35 36 37 39 42
26 23 20 18 13 8 10 14 17 14 21 24 22 20 26 28 25 25 23 20 21 21 23 23 23 26 30 35 38 37 42 37
22 17 14 11 7 5 6 7 8 17 21 21 20 25 26 27 22 25 22 22 22 20 22 24 24 29 31 31 34 37 40 43
11 8 9 10 6 2 1 2 6 12 14 18 19 25 26 30 25 24 25 23 21 21 23 24 25 29 32 35 35 36 39 41
26 17 13 9 6 6 3 1 4 9 11 17 22 22 24 25 24 21 21 22 22 23 23 24 25 27 29 32 34 38 39 41
21 21 16 11 9 8 5 4 2 4 9 11 12 17 18 21 22 20 19 20 21 22 21 22 23 24 28 31 34 36 38 40
17 16 18 15 13 11 8 4 2 3 4 6 9 13 15 19 18 18 19 19 19 17 17 18 19 20 20 20 21 24 24 31
24 14 17 16 14 15 12 8 6 3 1 5 5 8 13 15 16 17 15 16 16 17 18 17 17 18 18 16 14 17 20 22
31 24 17 15 15 13 12 12 12 8 4 2 5 8 8 11 12 15 15 15 12 13 16 16 15 14 18 14 11 12 15 15
26 26 20 16 15 14 12 11 10 10 8 4 1 9 10 14 14 14 17 16 13 10 12 14 12 12 15 16 15 12 14 16
23 20 19 20 14 13 14 10 6 6 7 8 6 1 6 11 13 16 16 18 13 13 13 13 12 10 12 15 16 18 15 16

GFSFLT1_850_spd_129.txt.gz
Wind_Speed
41 33 29 34 36 34 33 37 48 45 43 39 37 36 34 33 33 33 31 29 27 27 26 22 21 24 28 29 29 27 23 23
47 44 38 27 33 36 37 40 42 48 49 47 44 41 37 34 33 34 32 31 29 28 27 26 24 25 28 30 30 29 26 27
43 46 44 36 29 31 37 39 44 47 52 50 50 45 41 36 34 34 31 32 31 29 28 29 28 28 29 31 32 31 29 30
44 48 48 43 42 32 27 29 44 51 50 51 53 48 42 35 34 34 34 34 31 31 31 30 30 30 32 32 33 33 32 33
41 44 46 41 42 37 32 32 38 47 54 56 54 53 49 46 41 38 36 34 32 30 30 33 32 32 32 31 32 33 35 37
39 43 44 35 32 23 28 31 38 46 53 54 52 52 52 48 43 39 37 34 34 32 32 34 34 35 34 33 35 36 39 38
37 36 36 28 25 35 31 31 33 46 50 50 51 52 52 47 42 40 38 36 34 31 33 35 36 34 35 35 33 36 37 38
27 29 32 35 36 35 43 29 29 39 44 47 48 47 48 47 43 38 35 35 37 36 32 34 35 34 33 31 33 33 36 38
10 19 24 35 33 34 34 24 27 34 36 40 43 45 39 36 36 34 28 30 32 28 31 32 33 34 34 33 31 32 33 37
14 15 18 24 23 25 24 21 28 29 28 30 31 31 31 30 29 29 25 21 25 24 28 32 32 34 34 33 32 32 32 34
18 23 28 31 31 28 25 22 24 28 32 32 31 29 28 26 27 26 25 23 23 23 24 27 28 29 31 32 32 33 32 33
13 20 28 28 25 23 21 17 18 17 17 22 25 24 26 27 26 26 26 24 24 25 22 22 25 24 21 25 25 27 30 34
12 21 28 28 28 22 20 16 11 9 10 10 11 13 17 18 23 23 25 24 23 24 22 21 21 21 22 25 27 27 29 32
24 35 33 30 25 21 21 18 16 11 8 7 8 10 9 17 21 24 24 25 25 26 23 23 22 22 23 25 28 28 30 30
26 31 34 33 25 23 20 17 13 11 8 4 5 7 11 12 16 16 19 22 24 26 25 22 19 20 23 27 30 30 30 32
31 27 33 32 24 24 22 18 14 10 6 6 5 6 9 11 15 18 19 26 26 20 20 19 18 23 24 20 23 24 26 28
21 26 30 32 28 26 21 19 17 12 10 7 5 4 6 13 12 16 22 26 20 19 18 18 20 23 19 19 19 21 23 21
27 27 28 28 26 24 23 18 14 12 11 9 7 3 1 4 11 14 16 16 16 17 18 16 15 15 17 18 18 18 16 15
24 23 23 21 22 22 20 17 13 12 11 10 8 6 4 2 4 8 15 16 19 19 18 18 14 13 14 15 14 14 14 14

GFSFLT1_850_spd_132.txt.gz
Wind_Speed
50 49 47 38 32 31 32 43 40 38 44 47 43 40 39 38 37 36 34 32 31 30 28 23 23 24 24 25 27 26 24 22
52 46 44 44 37 31 38 38 40 42 43 50 47 44 41 40 38 37 35 34 33 33 31 28 25 26 25 26 28 28 27 24
50 42 38 39 41 33 33 35 37 41 44 43 50 46 45 42 40 38 37 35 34 34 33 32 30 27 27 28 31 31 29 27
49 49 42 41 42 35 33 33 33 40 41 44 48 47 45 44 42 39 38 36 36 36 34 33 32 30 29 29 31 33 32 31
43 45 45 41 39 33 32 29 34 31 40 47 50 52 52 51 48 45 38 36 36 36 35 34 33 32 32 31 31 33 33 32
43 42 45 42 37 37 31 27 26 27 37 42 52 55 51 50 52 47 42 38 35 35 34 34 32 34 34 32 32 33 34 32
36 39 42 43 34 37 30 23 16 13 30 36 50 56 53 52 49 49 46 42 35 34 34 33 33 33 35 32 30 30 30 32
19 24 32 30 22 24 25 26 27 25 20 35 47 49 51 52 54 52 49 42 37 36 36 37 34 33 35 33 35 34 34 34
22 19 15 3 13 22 25 22 33 28 24 36 45 44 45 48 51 49 50 43 36 36 36 37 32 31 34 34 34 33 34 33
34 32 21 14 7 8 20 25 14 21 24 32 37 36 41 46 44 41 43 36 27 27 33 33 31 30 31 32 33 33 31 31
36 37 30 24 16 17 14 21 13 18 14 25 29 27 28 27 32 32 34 28 22 20 25 31 30 29 30 32 33 32 32 30
32 34 31 27 27 22 28 19 9 16 19 21 17 17 15 18 23 29 29 26 24 25 28 29 26 27 27 28 31 30 31 29
38 30 33 30 31 32 31 27 16 8 14 20 22 17 12 17 28 26 30 27 26 27 27 27 25 23 25 26 25 28 26 25
41 38 38 32 33 33 31 25 24 14 10 15 19 21 22 26 27 32 30 25 22 24 25 27 23 20 19 19 21 21 24 27
38 34 36 43 39 32 32 26 20 15 11 8 13 19 20 24 27 23 21 20 19 21 22 27 25 22 21 18 22 24 25 29
39 41 43 47 41 36 31 28 22 19 16 11 10 8 8 11 12 11 11 11 13 17 22 26 24 22 22 20 22 23 26 30
38 38 40 42 40 34 28 24 24 21 18 17 12 8 6 7 9 13 15 13 14 16 17 21 20 22 21 20 19 19 22 23
36 37 36 35 34 31 28 24 19 19 17 15 13 11 8 5 6 6 10 16 17 19 18 19 20 19 18 19 18 20 20 22
31 33 32 30 28 28 24 22 21 19 17 16 13 12 9 8 4 2 4 10 10 14 19 17 17 16 16 17 18 16 18 19

GFSFLT1_850_spd_138.txt.gz
Wind_Speed
29 32 38 43 39 36 37 35 35 36 33 33 33 35 35 33 35 41 40 40 39 36 28 28 28 26 24 24 29 25 21 25
33 37 35 46 48 41 41 39 36 35 36 38 38 41 37 37 36 42 40 41 43 41 32 34 32 31 31 30 27 24 20 19
39 38 45 45 40 44 43 41 38 35 38 40 41 42 46 37 37 44 44 44 43 45 42 38 37 34 33 32 28 23 23 28
40 46 47 41 40 37 41 43 38 37 37 39 38 37 36 35 39 43 48 45 43 46 46 43 40 38 35 34 32 27 28 31
44 45 42 43 38 40 39 42 41 37 37 38 40 39 41 40 40 40 48 47 43 46 49 44 43 41 38 37 36 28 26 27
42 46 43 48 40 40 36 36 39 37 37 41 40 40 40 52 29 37 40 45 46 45 47 48 46 43 43 40 38 34 30 24
39 47 44 50 39 36 32 31 36 37 35 40 43 43 39 36 49 39 35 48 46 45 46 47 46 45 46 45 40 39 32 29
49 49 50 53 46 41 33 21 32 34 33 40 43 42 41 39 37 32 32 44 50 48 47 47 47 46 46 46 43 41 38 31
44 48 48 53 50 45 34 14 23 27 30 36 40 40 35 33 29 39 33 40 53 49 48 48 46 45 45 45 43 40 38 35
44 53 52 54 53 47 39 20 7 15 25 29 33 34 31 30 29 31 31 34 40 43 46 49 48 46 44 44 43 40 37 36
46 52 55 56 54 48 36 26 16 5 9 17 23 24 25 25 29 30 32 32 31 35 39 44 49 46 44 43 42 40 37 35
41 51 53 51 50 48 38 31 26 16 11 14 15 18 21 22 23 26 28 29 30 31 34 35 41 45 43 41 40 42 37 33
38 46 51 50 49 51 42 36 30 26 15 12 14 15 18 19 19 21 23 24 25 29 29 31 35 43 40 37 38 40 36 31
41 48 49 49 47 48 43 38 32 27 21 14 13 13 12 12 14 17 20 25 29 27 30 30 33 34 32 29 32 34 33 32
36 44 45 46 43 43 43 38 33 28 23 18 10 15 13 8 6 7 14 14 17 17 18 24 23 19 20 23 27 33 31 30
33 38 39 42 42 41 40 37 35 30 23 16 18 9 5 3 2 4 4 12 13 14 15 17 22 26 25 24 32 31 30 28
31 36 35 37 38 39 40 37 34 29 26 23 17 4 1 4 6 7 11 14 11 14 16 19 17 19 23 27 32 33 30 28
32 32 34 35 37 36 35 34 31 28 22 24 24 18 11 12 6 10 9 13 10 16 15 15 18 25 26 31 40 37 33 27
29 29 27 28 29 30 30 27 26 22 23 26 24 20 16 14 10 8 8 9 10 10 11 15 17 19 23 25 22 30 29 21